TimeEDT,TemperatureF,Dew PointF,Humidity,Sea Level PressureIn,VisibilityMPH,Wind Direction,Wind SpeedMPH,Gust SpeedMPH,PrecipitationIn,Events,Conditions,WindDirDegrees,DateUTC
12:56 AM,61.0,59.0,93,29.71,10.0,South,4.6,-,N/A,,Overcast,190,2013-05-12 04:56:00
1:42 AM,60.8,59.0,94,29.65,10.0,South,4.6,-,N/A,,Overcast,170,2013-05-12 05:42:00
1:56 AM,61.0,59.0,93,29.70,10.0,SSW,5.8,-,N/A,,Overcast,200,2013-05-12 05:56:00
2:56 AM,61.0,57.9,90,29.69,10.0,South,6.9,-,N/A,,Overcast,180,2013-05-12 06:56:00
3:56 AM,60.1,57.9,93,29.67,10.0,South,4.6,-,N/A,,Overcast,190,2013-05-12 07:56:00
4:56 AM,60.1,57.9,93,29.67,10.0,South,6.9,-,N/A,,Overcast,180,2013-05-12 08:56:00
5:56 AM,60.1,57.9,93,29.67,10.0,South,4.6,-,N/A,,Overcast,190,2013-05-12 09:56:00
6:56 AM,60.1,57.9,93,29.67,5.0,SSW,3.5,-,0.00,,Overcast,210,2013-05-12 10:56:00
7:56 AM,61.0,57.9,90,29.67,2.0,SW,5.8,-,0.01,,Overcast,230,2013-05-12 11:56:00
8:53 AM,60.8,59.0,94,29.61,3.0,SW,6.9,-,0.07,Rain,Rain,220,2013-05-12 12:53:00
8:56 AM,61.0,59.0,93,29.65,3.0,SW,5.8,-,0.07,Rain,Light Rain,220,2013-05-12 12:56:00
8:59 AM,60.8,59.0,94,29.61,2.5,SW,5.8,-,0.01,Rain,Rain,220,2013-05-12 12:59:00
9:11 AM,60.8,60.8,100,29.60,4.0,SSW,3.5,-,0.02,Rain,Light Rain,210,2013-05-12 13:11:00
9:56 AM,59.0,57.9,96,29.66,2.5,West,6.9,-,0.06,Rain,Light Rain,280,2013-05-12 13:56:00
10:43 AM,59.0,59.0,100,29.61,2.5,WSW,3.5,-,0.03,Rain,Light Rain,240,2013-05-12 14:43:00
10:56 AM,59.0,59.0,100,29.64,10.0,Calm,Calm,-,0.03,,Overcast,0,2013-05-12 14:56:00
11:56 AM,62.1,59.0,90,29.64,10.0,West,4.6,-,0.01,,Overcast,270,2013-05-12 15:56:00
12:17 PM,62.6,57.2,82,29.60,10.0,Variable,6.9,-,N/A,,Overcast,0,2013-05-12 16:17:00
12:56 PM,64.9,55.0,70,29.63,10.0,SW,8.1,-,N/A,,Mostly Cloudy,230,2013-05-12 16:56:00
1:56 PM,66.9,51.1,57,29.62,10.0,WNW,11.5,-,N/A,,Mostly Cloudy,290,2013-05-12 17:56:00
2:56 PM,70.0,48.9,47,29.60,10.0,WSW,11.5,16.1,N/A,,Mostly Cloudy,240,2013-05-12 18:56:00
3:56 PM,69.1,46.0,44,29.60,10.0,SW,11.5,-,N/A,,Partly Cloudy,230,2013-05-12 19:56:00
4:56 PM,66.0,46.9,50,29.61,10.0,WNW,13.8,27.6,N/A,,Mostly Cloudy,290,2013-05-12 20:56:00
5:56 PM,61.0,41.0,48,29.66,10.0,WNW,13.8,24.2,N/A,,Mostly Cloudy,290,2013-05-12 21:56:00
6:56 PM,59.0,37.0,44,29.70,10.0,West,13.8,24.2,N/A,,Scattered Clouds,280,2013-05-12 22:56:00
7:56 PM,55.9,28.9,36,29.74,10.0,West,13.8,24.2,N/A,,Mostly Cloudy,280,2013-05-12 23:56:00
8:56 PM,54.0,26.1,34,29.76,10.0,West,10.4,-,N/A,,Clear,280,2013-05-13 00:56:00
9:56 PM,50.0,28.0,43,29.78,10.0,West,4.6,-,N/A,,Clear,280,2013-05-13 01:56:00
10:56 PM,48.9,28.0,44,29.82,10.0,West,8.1,-,N/A,,Clear,260,2013-05-13 02:56:00
11:56 PM,48.0,28.0,46,29.84,10.0,West,5.8,-,N/A,,Clear,270,2013-05-13 03:56:00